Time,TemperatureF,DewpointF,PressureIn,WindDirection,WindDirectionDegrees,WindSpeedMPH,WindSpeedGustMPH,Humidity,HourlyPrecipIn,Conditions,Clouds,dailyrainin,SoftwareType,DateUTC
2013-01-16 00:42:00,7.0,4.0,-100.00,South,173,2.0,6.0,87,0.00,,,0.03,,2013-01-16 07:42:00,
2013-01-16 00:52:00,7.0,4.0,-100.00,South,173,2.0,6.0,87,0.00,,,0.03,,2013-01-16 07:52:00,
2013-01-16 01:42:00,3.0,-1.0,-100.00,WSW,239,3.0,5.0,83,0.00,,,0.02,,2013-01-16 08:42:00,
2013-01-16 01:52:00,3.0,-1.0,-100.00,WSW,239,3.0,5.0,83,0.00,,,0.02,,2013-01-16 08:52:00,
2013-01-16 02:42:00,7.0,3.0,-100.00,ESE,108,3.0,6.0,84,0.00,,,-99.99,,2013-01-16 09:42:00,
2013-01-16 02:53:00,7.0,3.0,-100.00,ESE,108,3.0,6.0,84,0.00,,,-99.99,,2013-01-16 09:53:00,
2013-01-16 03:11:00,7.0,3.0,-100.00,ESE,108,3.0,6.0,84,0.00,,,-99.99,,2013-01-16 10:11:00,
2013-01-16 03:42:00,7.0,3.0,-100.00,SSW,204,3.0,5.0,84,0.00,,,0.01,,2013-01-16 10:42:00,
2013-01-16 03:53:00,7.0,3.0,-100.00,SSW,204,3.0,5.0,84,0.00,,,0.01,,2013-01-16 10:53:00,
2013-01-16 04:11:00,7.0,3.0,-100.00,SSW,204,3.0,5.0,84,0.00,,,0.01,,2013-01-16 11:11:00,
2013-01-16 04:42:00,5.0,1.0,-100.00,SW,225,3.0,7.0,84,-99.99,,,0.01,,2013-01-16 11:42:00,
2013-01-16 04:53:00,5.0,1.0,-100.00,SW,225,3.0,7.0,84,-99.99,,,0.01,,2013-01-16 11:53:00,
2013-01-16 05:43:00,6.0,3.0,-100.00,SSW,213,3.0,6.0,84,0.00,,,0.01,,2013-01-16 12:43:00,
2013-01-16 05:53:00,6.0,3.0,-100.00,SSW,213,3.0,6.0,84,0.00,,,0.01,,2013-01-16 12:53:00,
2013-01-16 06:42:00,6.0,3.0,-100.00,SW,222,4.0,8.0,85,-99.99,,,0.01,,2013-01-16 13:42:00,
2013-01-16 06:53:00,6.0,3.0,-100.00,SW,222,4.0,8.0,85,-99.99,,,0.01,,2013-01-16 13:53:00,
2013-01-16 07:12:00,6.0,3.0,-100.00,SW,222,4.0,8.0,85,-99.99,,,0.01,,2013-01-16 14:12:00,
2013-01-16 07:42:00,7.0,4.0,-100.00,East,91,3.0,7.0,84,0.00,,,0.01,,2013-01-16 14:42:00,
2013-01-16 07:53:00,7.0,4.0,-100.00,East,91,3.0,7.0,84,0.00,,,0.01,,2013-01-16 14:53:00,
2013-01-16 08:03:00,7.0,4.0,-100.00,East,91,3.0,7.0,84,0.00,,,0.01,,2013-01-16 15:03:00,
2013-01-16 08:43:00,7.0,4.0,-100.00,SW,223,4.0,6.0,85,-99.99,,,0.00,,2013-01-16 15:43:00,
2013-01-16 08:53:00,7.0,4.0,-100.00,SW,223,4.0,6.0,85,-99.99,,,0.00,,2013-01-16 15:53:00,
2013-01-16 09:03:00,7.0,4.0,-100.00,SW,223,4.0,6.0,85,-99.99,,,0.00,,2013-01-16 16:03:00,
2013-01-16 09:12:00,7.0,4.0,-100.00,SW,223,4.0,6.0,85,-99.99,,,0.00,,2013-01-16 16:12:00,
2013-01-16 09:42:00,10.0,6.0,-100.00,SW,222,3.0,6.0,85,0.00,,,0.00,,2013-01-16 16:42:00,
2013-01-16 09:53:00,10.0,6.0,-100.00,SW,222,3.0,6.0,85,0.00,,,0.00,,2013-01-16 16:53:00,
2013-01-16 10:02:00,10.0,6.0,-100.00,SW,222,3.0,6.0,85,0.00,,,0.00,,2013-01-16 17:02:00,
2013-01-16 10:43:00,13.0,9.0,-100.00,WSW,241,3.0,6.0,84,0.00,,,0.00,,2013-01-16 17:43:00,
2013-01-16 10:53:00,13.0,9.0,-100.00,WSW,241,3.0,6.0,84,0.00,,,0.00,,2013-01-16 17:53:00,
2013-01-16 11:02:00,13.0,9.0,-100.00,WSW,241,3.0,6.0,84,0.00,,,0.00,,2013-01-16 18:02:00,
2013-01-16 11:12:00,13.0,9.0,-100.00,WSW,241,3.0,6.0,84,0.00,,,0.00,,2013-01-16 18:12:00,
2013-01-16 11:42:00,19.0,14.0,-100.00,South,181,4.0,6.0,82,0.01,,,0.01,,2013-01-16 18:42:00,
2013-01-16 11:53:00,19.0,14.0,-100.00,South,181,4.0,6.0,82,0.01,,,0.01,,2013-01-16 18:53:00,
2013-01-16 12:02:00,19.0,14.0,-100.00,South,181,4.0,6.0,82,0.01,,,0.01,,2013-01-16 19:02:00,
2013-01-16 12:12:00,19.0,14.0,-100.00,South,181,4.0,6.0,82,0.01,,,0.01,,2013-01-16 19:12:00,
2013-01-16 12:42:00,26.0,18.0,-100.00,WNW,303,4.0,6.0,71,-99.99,,,-99.99,,2013-01-16 19:42:00,
2013-01-16 12:53:00,26.0,18.0,-100.00,WNW,303,4.0,6.0,71,-99.99,,,-99.99,,2013-01-16 19:53:00,
2013-01-16 13:03:00,26.0,18.0,-100.00,WNW,303,4.0,6.0,71,-99.99,,,-99.99,,2013-01-16 20:03:00,
2013-01-16 13:12:00,26.0,18.0,-100.00,WNW,303,4.0,6.0,71,-99.99,,,-99.99,,2013-01-16 20:12:00,
2013-01-16 13:42:00,31.0,17.0,-100.00,NE,42,2.0,5.0,56,0.00,,,0.00,,2013-01-16 20:42:00,
2013-01-16 13:53:00,31.0,17.0,-100.00,NE,42,2.0,5.0,56,0.00,,,0.00,,2013-01-16 20:53:00,
2013-01-16 14:02:00,31.0,17.0,-100.00,NE,42,2.0,5.0,56,0.00,,,0.00,,2013-01-16 21:02:00,
2013-01-16 14:12:00,31.0,17.0,-100.00,NE,42,2.0,5.0,56,0.00,,,0.00,,2013-01-16 21:12:00,
2013-01-16 14:43:00,32.0,19.0,-100.00,NE,55,5.0,9.0,59,0.00,,,0.00,,2013-01-16 21:43:00,
2013-01-16 14:53:00,32.0,19.0,-100.00,NE,55,5.0,9.0,59,0.00,,,0.00,,2013-01-16 21:53:00,
2013-01-16 15:02:00,32.0,19.0,-100.00,NE,55,5.0,9.0,59,0.00,,,0.00,,2013-01-16 22:02:00,
2013-01-16 15:12:00,32.0,19.0,-100.00,NE,55,5.0,9.0,59,0.00,,,0.00,,2013-01-16 22:12:00,
2013-01-16 15:43:00,32.0,18.0,-100.00,SW,216,5.0,12.0,56,0.00,,,0.00,,2013-01-16 22:43:00,
2013-01-16 15:53:00,32.0,18.0,-100.00,SW,216,5.0,12.0,56,0.00,,,0.00,,2013-01-16 22:53:00,
2013-01-16 16:12:00,32.0,18.0,-100.00,SW,216,5.0,12.0,56,0.00,,,0.00,,2013-01-16 23:12:00,
2013-01-16 16:42:00,31.0,17.0,-100.00,South,177,2.0,6.0,56,-99.99,,,0.00,,2013-01-16 23:42:00,
2013-01-16 16:53:00,31.0,17.0,-100.00,South,177,2.0,6.0,56,-99.99,,,0.00,,2013-01-16 23:53:00,
2013-01-16 17:42:00,21.0,13.0,-100.00,SSW,199,2.0,9.0,72,-99.99,,,0.00,,2013-01-17 00:42:00,
2013-01-16 17:52:00,21.0,13.0,-100.00,SSW,199,2.0,9.0,72,-99.99,,,0.00,,2013-01-17 00:52:00,
2013-01-16 18:42:00,27.0,17.0,-100.00,NNE,25,6.0,9.0,67,0.00,,,0.00,,2013-01-17 01:42:00,
2013-01-16 19:12:00,27.0,17.0,-100.00,NNE,25,6.0,9.0,67,0.00,,,0.00,,2013-01-17 02:12:00,
2013-01-16 20:02:00,23.0,15.0,-100.00,SW,220,3.0,8.0,71,0.00,,,0.00,,2013-01-17 03:02:00,
2013-01-16 20:42:00,18.0,12.0,-100.00,WSW,246,5.0,8.0,76,0.00,,,0.00,,2013-01-17 03:42:00,
2013-01-16 20:52:00,18.0,12.0,-100.00,WSW,246,5.0,8.0,76,0.00,,,0.00,,2013-01-17 03:52:00,
2013-01-16 21:42:00,16.0,11.0,-100.00,SSW,204,6.0,11.0,81,-99.99,,,0.00,,2013-01-17 04:42:00,
2013-01-16 21:52:00,16.0,11.0,-100.00,SSW,204,6.0,11.0,81,-99.99,,,0.00,,2013-01-17 04:52:00,
2013-01-16 22:42:00,12.0,7.0,-100.00,SSW,206,4.0,9.0,82,0.00,,,0.00,,2013-01-17 05:42:00,
2013-01-16 22:53:00,12.0,7.0,-100.00,SSW,206,4.0,9.0,82,0.00,,,0.00,,2013-01-17 05:53:00,
2013-01-16 23:42:00,14.0,10.0,-100.00,SW,229,5.0,11.0,83,0.00,,,0.00,,2013-01-17 06:42:00,
2013-01-16 23:52:00,14.0,10.0,-100.00,SW,229,5.0,11.0,83,0.00,,,0.00,,2013-01-17 06:52:00,